Location: *
(49.5667°N, 1.3667°W)
Time: 14:05:52
(UTC+00:00)

SL-08 RB Rocket - Pass Details

Date: 20 September 2019
Orbit: 646 x 685 km, 97.9° (Epoch: 22 October)

Event Time Altitude Azimuth Distance (km) Brightness Sun altitude
Exits shadow 20:01:12 32° 147° (SSE) 1,182 4.5 -18.5°
Maximum altitude 20:03:20 69° 73° (ENE) 737 3.7 -18.8°
Drops below altitude 10° 20:08:00 10° 351° (N) 2,142 6.8 -19.5°
Sets 20:10:15 0° 349° (N) 3,060 7.7 -19.8°
